Time,TemperatureF,DewpointF,PressureIn,WindDirection,WindDirectionDegrees,WindSpeedMPH,WindSpeedGustMPH,Humidity,HourlyPrecipIn,Conditions,Clouds,dailyrainin,SoftwareType,DateUTC
2013-02-16 00:00:00,43.2,33.7,29.87,North,6,3.0,6.0,69,0.00,,OVC075,0.00,VWS V14.01,2013-02-16 05:00:00,
2013-02-16 00:05:00,42.9,33.4,29.87,NNE,21,5.0,8.0,69,0.00,,-RA,0.00,VWS V14.01,2013-02-16 05:05:00,
2013-02-16 00:10:00,42.5,33.1,29.87,North,2,3.0,14.0,69,0.00,,-RA,0.00,VWS V14.01,2013-02-16 05:10:00,
2013-02-16 00:15:00,42.3,33.2,29.87,NNE,17,13.0,14.0,70,0.00,,-RA,0.00,VWS V14.01,2013-02-16 05:15:00,
2013-02-16 00:20:00,42.1,33.4,29.88,North,9,5.0,14.0,71,0.00,,-RA,0.00,VWS V14.01,2013-02-16 05:20:00,
2013-02-16 00:23:00,42.1,33.3,29.87,NNE,17,8.0,14.0,71,0.00,,-RA,0.00,VWS V14.01,2013-02-16 05:23:00,
2013-02-16 00:28:00,41.8,33.1,29.88,North,10,6.0,14.0,72,0.00,,-RA,0.00,VWS V14.01,2013-02-16 05:28:00,
2013-02-16 00:33:00,41.5,33.5,29.89,NNE,12,8.0,12.0,73,0.00,,-RA,0.00,VWS V14.01,2013-02-16 05:33:00,
2013-02-16 00:38:00,41.3,33.3,29.87,North,10,4.0,12.0,73,0.00,,-RA,0.00,VWS V14.01,2013-02-16 05:38:00,
2013-02-16 00:43:00,41.2,33.5,29.88,North,0,4.0,13.0,74,0.00,,-RA,0.00,VWS V14.01,2013-02-16 05:43:00,
2013-02-16 00:48:00,40.9,33.6,29.89,North,5,7.0,13.0,75,0.00,,-RA,0.00,VWS V14.01,2013-02-16 05:48:00,
2013-02-16 00:53:00,40.7,33.7,29.88,North,6,6.0,13.0,76,0.00,,-RA,0.00,VWS V14.01,2013-02-16 05:53:00,
2013-02-16 00:58:00,40.7,34.1,29.88,NNE,12,6.0,13.0,77,0.00,,-RA,0.00,VWS V14.01,2013-02-16 05:58:00,
2013-02-16 01:03:00,40.4,33.8,29.88,North,8,6.0,9.0,77,0.00,,OVC080,0.00,VWS V14.01,2013-02-16 06:03:00,
2013-02-16 01:08:00,40.3,34.0,29.88,NNE,24,5.0,10.0,78,0.00,,OVC080,0.00,VWS V14.01,2013-02-16 06:08:00,
2013-02-16 01:13:00,40.1,33.8,29.89,NNE,22,9.0,13.0,78,0.00,,OVC080,0.00,VWS V14.01,2013-02-16 06:13:00,
2013-02-16 01:18:00,39.8,33.8,29.89,North,4,5.0,13.0,79,0.00,,OVC080,0.00,VWS V14.01,2013-02-16 06:18:00,
2013-02-16 01:23:00,39.6,34.0,29.89,North,10,3.0,13.0,80,0.00,,OVC080,0.00,VWS V14.01,2013-02-16 06:23:00,
2013-02-16 01:28:00,39.7,34.0,29.88,North,11,6.0,13.0,80,0.00,,OVC080,0.00,VWS V14.01,2013-02-16 06:28:00,
2013-02-16 01:33:00,39.6,34.0,29.88,NNE,15,2.0,10.0,80,0.00,,OVC080,0.00,VWS V14.01,2013-02-16 06:33:00,
2013-02-16 01:38:00,39.6,34.3,29.88,NNE,16,7.0,10.0,81,0.00,,OVC080,0.00,VWS V14.01,2013-02-16 06:38:00,
2013-02-16 01:43:00,39.4,33.8,29.88,North,3,6.0,13.0,80,0.00,,OVC080,0.00,VWS V14.01,2013-02-16 06:43:00,
2013-02-16 01:48:00,39.2,34.0,29.87,NNE,18,9.0,13.0,81,0.00,,OVC080,0.00,VWS V14.01,2013-02-16 06:48:00,
2013-02-16 01:53:00,39.1,33.8,29.87,NNE,13,9.0,13.0,81,0.00,,OVC080,0.00,VWS V14.01,2013-02-16 06:53:00,
2013-02-16 01:58:00,39.1,34.1,29.88,NNE,29,3.0,16.0,82,0.00,,OVC080,0.00,VWS V14.01,2013-02-16 06:58:00,
2013-02-16 02:03:00,39.1,34.1,29.87,NE,40,1.0,10.0,82,0.00,,-RA,0.00,VWS V14.01,2013-02-16 07:03:00,
2013-02-16 02:08:00,38.9,34.0,29.87,North,0,2.0,10.0,82,0.00,,-RA,0.00,VWS V14.01,2013-02-16 07:08:00,
2013-02-16 02:13:00,38.7,34.0,29.87,NNE,18,3.0,10.0,83,0.00,,-RA,0.00,VWS V14.01,2013-02-16 07:13:00,
2013-02-16 02:18:00,38.7,34.3,29.87,NNE,17,4.0,10.0,84,0.00,,-RA,0.00,VWS V14.01,2013-02-16 07:18:00,
2013-02-16 02:23:00,38.5,34.1,29.88,NNE,25,0.0,11.0,84,0.00,,-RA,0.00,VWS V14.01,2013-02-16 07:23:00,
2013-02-16 02:28:00,38.3,33.9,29.87,NNE,21,4.0,11.0,84,0.00,,-RA,0.00,VWS V14.01,2013-02-16 07:28:00,
2013-02-16 02:33:00,38.2,34.1,29.87,NNE,24,3.0,8.0,85,0.00,,-RA,0.00,VWS V14.01,2013-02-16 07:33:00,
2013-02-16 02:37:00,38.0,33.9,29.88,NE,56,0.0,8.0,85,0.00,,-RA,0.00,VWS V14.01,2013-02-16 07:37:00,
2013-02-16 02:42:00,38.3,34.2,29.87,NNE,28,11.0,11.0,85,0.00,,-RA,0.00,VWS V14.01,2013-02-16 07:42:00,
2013-02-16 02:47:00,38.3,34.2,29.88,NE,48,0.0,11.0,85,0.00,,-RA,0.00,VWS V14.01,2013-02-16 07:47:00,
2013-02-16 02:52:00,38.0,33.9,29.86,NE,46,2.0,11.0,85,0.00,,-RA,0.00,VWS V14.01,2013-02-16 07:52:00,
2013-02-16 02:57:00,37.7,33.9,29.87,NNE,30,1.0,11.0,86,0.00,,-RA,0.00,VWS V14.01,2013-02-16 07:57:00,
2013-02-16 03:02:00,37.7,33.9,29.86,NNE,17,0.0,4.0,86,0.00,,-RA,0.00,VWS V14.01,2013-02-16 08:02:00,
2013-02-16 03:07:00,37.8,33.9,29.86,North,11,2.0,7.0,86,0.00,,-RA,0.00,VWS V14.01,2013-02-16 08:07:00,
2013-02-16 03:12:00,37.8,34.0,29.86,NNE,27,2.0,7.0,86,0.00,,-RA,0.00,VWS V14.01,2013-02-16 08:12:00,
2013-02-16 03:17:00,37.7,33.9,29.86,NNE,20,4.0,7.0,86,0.00,,-RA,0.00,VWS V14.01,2013-02-16 08:17:00,
2013-02-16 03:22:00,37.5,33.8,29.87,NNE,26,3.0,9.0,86,0.00,,-RA,0.00,VWS V14.01,2013-02-16 08:22:00,
2013-02-16 03:27:00,37.4,33.9,29.86,NNE,25,0.0,9.0,87,0.00,,-RA,0.00,VWS V14.01,2013-02-16 08:27:00,
2013-02-16 03:32:00,37.3,33.5,29.86,NNE,13,3.0,7.0,87,0.00,,-RA,0.00,VWS V14.01,2013-02-16 08:32:00,
2013-02-16 03:37:00,37.2,33.7,29.86,NE,36,0.0,7.0,87,0.00,,-RA,0.00,VWS V14.01,2013-02-16 08:37:00,
2013-02-16 03:42:00,37.2,33.7,29.86,NNE,18,8.0,8.0,87,0.00,,-RA,0.00,VWS V14.01,2013-02-16 08:42:00,
2013-02-16 03:47:00,37.0,33.5,29.86,NE,51,2.0,8.0,87,0.00,,-RA,0.00,VWS V14.01,2013-02-16 08:47:00,
2013-02-16 03:52:00,37.0,33.5,29.86,NNE,15,3.0,8.0,87,0.00,,-RA,0.00,VWS V14.01,2013-02-16 08:52:00,
2013-02-16 03:57:00,36.9,33.4,29.86,NNE,29,0.0,8.0,87,0.00,,-RA,0.00,VWS V14.01,2013-02-16 08:57:00,
2013-02-16 04:02:00,37.1,33.6,29.85,North,9,1.0,8.0,87,0.00,,-RA,0.00,VWS V14.01,2013-02-16 09:02:00,
2013-02-16 04:07:00,37.2,33.7,29.86,NE,37,4.0,8.0,87,0.00,,-RA,0.00,VWS V14.01,2013-02-16 09:07:00,
2013-02-16 04:12:00,37.0,33.4,29.85,NNE,18,2.0,8.0,87,0.00,,-RA,0.00,VWS V14.01,2013-02-16 09:12:00,
2013-02-16 04:17:00,36.9,33.4,29.85,ENE,69,2.0,8.0,87,0.00,,-RA,0.00,VWS V14.01,2013-02-16 09:17:00,
2013-02-16 04:22:00,37.0,33.5,29.86,ENE,76,2.0,8.0,87,0.00,,-RA,0.00,VWS V14.01,2013-02-16 09:22:00,
2013-02-16 04:27:00,36.8,33.5,29.85,NNE,12,0.0,8.0,87,0.00,,-RA,0.00,VWS V14.01,2013-02-16 09:27:00,
2013-02-16 04:32:00,36.7,33.2,29.85,ENE,75,0.0,3.0,87,0.00,,-RA,0.00,VWS V14.01,2013-02-16 09:32:00,
2013-02-16 04:37:00,36.8,33.3,29.85,NNE,28,0.0,7.0,87,0.00,,-RA,0.00,VWS V14.01,2013-02-16 09:37:00,
2013-02-16 04:42:00,36.7,33.2,29.85,NE,37,0.0,7.0,87,0.00,,-RA,0.00,VWS V14.01,2013-02-16 09:42:00,
2013-02-16 04:47:00,36.6,33.1,29.85,NNE,32,1.0,7.0,87,0.00,,-RA,0.00,VWS V14.01,2013-02-16 09:47:00,
2013-02-16 04:52:00,36.4,32.6,29.85,NNE,24,0.0,8.0,86,0.00,,-RA,0.00,VWS V14.01,2013-02-16 09:52:00,
2013-02-16 04:57:00,36.3,32.8,29.86,North,2,1.0,8.0,87,0.00,,-RA,0.00,VWS V14.01,2013-02-16 09:57:00,
2013-02-16 05:02:00,36.3,32.8,29.86,NE,44,2.0,7.0,87,0.00,,-RA,0.00,VWS V14.01,2013-02-16 10:02:00,
2013-02-16 05:07:00,36.2,32.7,29.86,NNE,17,0.0,8.0,87,0.00,,-RA,0.00,VWS V14.01,2013-02-16 10:07:00,
2013-02-16 05:12:00,36.0,32.5,29.85,ENE,61,0.0,8.0,87,0.00,,-RA,0.00,VWS V14.01,2013-02-16 10:12:00,
2013-02-16 05:17:00,35.9,32.4,29.87,NE,43,0.0,8.0,87,0.00,,-RA,0.00,VWS V14.01,2013-02-16 10:17:00,
2013-02-16 05:22:00,35.9,32.3,29.86,NNE,25,6.0,9.0,87,0.00,,-RA,0.00,VWS V14.01,2013-02-16 10:22:00,
2013-02-16 05:27:00,35.7,32.2,29.87,NE,41,2.0,9.0,87,0.00,,-RA,0.00,VWS V14.01,2013-02-16 10:27:00,
2013-02-16 05:32:00,35.7,32.1,29.87,NNE,14,1.0,8.0,87,0.00,,-RA,0.00,VWS V14.01,2013-02-16 10:32:00,
2013-02-16 05:37:00,35.7,32.2,29.87,NNE,14,3.0,8.0,87,0.00,,-RA,0.00,VWS V14.01,2013-02-16 10:37:00,
2013-02-16 05:42:00,35.6,32.1,29.87,North,10,0.0,9.0,87,0.00,,-RA,0.00,VWS V14.01,2013-02-16 10:42:00,
2013-02-16 05:47:00,35.6,32.1,29.86,NNE,24,0.0,9.0,87,0.00,,-RA,0.00,VWS V14.01,2013-02-16 10:47:00,
2013-02-16 05:52:00,35.6,32.1,29.86,NNE,15,5.0,9.0,87,0.00,,-RA,0.00,VWS V14.01,2013-02-16 10:52:00,
2013-02-16 05:57:00,35.6,32.1,29.86,North,6,0.0,9.0,87,0.00,,-RA,0.00,VWS V14.01,2013-02-16 10:57:00,
2013-02-16 06:02:00,35.6,32.1,29.87,NNE,28,0.0,5.0,87,0.00,,,0.00,VWS V14.01,2013-02-16 11:02:00,
2013-02-16 06:07:00,35.6,32.1,29.86,NE,41,2.0,9.0,87,0.00,,,0.00,VWS V14.01,2013-02-16 11:07:00,
2013-02-16 06:12:00,35.6,32.0,29.87,NNE,16,7.0,11.0,87,0.00,,,0.00,VWS V14.01,2013-02-16 11:12:00,
2013-02-16 06:17:00,35.4,31.9,29.87,NNE,12,1.0,11.0,87,0.00,,,0.00,VWS V14.01,2013-02-16 11:17:00,
2013-02-16 06:22:00,35.3,31.8,29.87,NNE,22,0.0,11.0,87,0.00,,,0.00,VWS V14.01,2013-02-16 11:22:00,
2013-02-16 06:27:00,35.3,31.9,29.87,NE,48,1.0,11.0,87,0.00,,,0.00,VWS V14.01,2013-02-16 11:27:00,
2013-02-16 06:32:00,35.4,31.6,29.87,NNE,28,4.0,7.0,87,0.00,,,0.00,VWS V14.01,2013-02-16 11:32:00,
2013-02-16 06:37:00,35.3,31.5,29.87,NE,38,3.0,7.0,86,0.00,,,0.00,VWS V14.01,2013-02-16 11:37:00,
2013-02-16 06:42:00,35.3,31.5,29.86,North,6,4.0,9.0,86,0.00,,,0.00,VWS V14.01,2013-02-16 11:42:00,
2013-02-16 06:47:00,35.2,31.4,29.87,NNE,28,7.0,9.0,86,0.00,,,0.00,VWS V14.01,2013-02-16 11:47:00,
2013-02-16 06:52:00,35.3,31.4,29.88,NNE,31,0.0,9.0,86,0.00,,,0.00,VWS V14.01,2013-02-16 11:52:00,
2013-02-16 06:57:00,35.1,31.0,29.87,NNE,13,3.0,9.0,85,0.00,,,0.00,VWS V14.01,2013-02-16 11:57:00,
2013-02-16 07:02:00,35.3,31.2,29.87,ENE,68,5.0,6.0,85,0.00,,,0.00,VWS V14.01,2013-02-16 12:02:00,
2013-02-16 07:07:00,35.2,31.1,29.86,ENE,71,2.0,7.0,85,0.00,,,0.00,VWS V14.01,2013-02-16 12:07:00,
2013-02-16 07:12:00,35.1,31.0,29.88,ENE,67,4.0,9.0,85,0.00,,,0.00,VWS V14.01,2013-02-16 12:12:00,
2013-02-16 07:17:00,35.2,31.0,29.88,NNE,19,2.0,9.0,85,0.00,,,0.00,VWS V14.01,2013-02-16 12:17:00,
2013-02-16 07:22:00,35.3,31.2,29.88,NNE,19,0.0,9.0,85,0.00,,,0.00,VWS V14.01,2013-02-16 12:22:00,
2013-02-16 07:27:00,35.3,31.0,29.88,NE,52,0.0,9.0,84,0.00,,,0.00,VWS V14.01,2013-02-16 12:27:00,
2013-02-16 07:32:00,35.4,31.1,29.88,East,82,0.0,3.0,84,0.00,,,0.00,VWS V14.01,2013-02-16 12:32:00,
2013-02-16 07:37:00,35.4,31.1,29.87,NE,54,0.0,3.0,84,0.00,,,0.00,VWS V14.01,2013-02-16 12:37:00,
2013-02-16 07:42:00,35.5,31.1,29.86,East,101,1.0,9.0,84,0.00,,,0.00,VWS V14.01,2013-02-16 12:42:00,
2013-02-16 07:47:00,35.4,30.8,29.87,East,81,5.0,9.0,83,0.00,,,0.00,VWS V14.01,2013-02-16 12:47:00,
2013-02-16 07:52:00,35.4,30.8,29.87,NE,49,2.0,9.0,83,0.00,,,0.00,VWS V14.01,2013-02-16 12:52:00,
2013-02-16 07:57:00,35.3,30.4,29.87,ENE,66,5.0,9.0,82,0.00,,,0.00,VWS V14.01,2013-02-16 12:57:00,
2013-02-16 08:02:00,35.3,30.3,29.88,ENE,59,0.0,9.0,82,0.00,,OVC080,0.00,VWS V14.01,2013-02-16 13:02:00,
2013-02-16 08:07:00,35.3,30.4,29.87,ENE,68,2.0,9.0,82,0.00,,OVC080,0.00,VWS V14.01,2013-02-16 13:07:00,
2013-02-16 08:12:00,35.3,30.4,29.88,ESE,122,2.0,9.0,82,0.00,,OVC080,0.00,VWS V14.01,2013-02-16 13:12:00,
2013-02-16 08:17:00,35.4,30.4,29.88,NE,36,0.0,10.0,82,0.00,,OVC080,0.00,VWS V14.01,2013-02-16 13:17:00,
2013-02-16 08:22:00,35.3,30.1,29.88,NNE,21,4.0,10.0,82,0.00,,OVC080,0.00,VWS V14.01,2013-02-16 13:22:00,
2013-02-16 08:27:00,35.4,30.2,29.88,NNE,13,6.0,10.0,81,0.00,,OVC080,0.00,VWS V14.01,2013-02-16 13:27:00,
2013-02-16 08:32:00,35.3,30.1,29.87,NE,50,1.0,10.0,81,0.00,,OVC080,0.00,VWS V14.01,2013-02-16 13:32:00,
2013-02-16 08:37:00,35.2,30.1,29.87,NNE,23,0.0,10.0,81,0.00,,OVC080,0.00,VWS V14.01,2013-02-16 13:37:00,
2013-02-16 08:42:00,35.2,30.0,29.87,ENE,59,6.0,10.0,81,0.00,,OVC080,0.00,VWS V14.01,2013-02-16 13:42:00,
2013-02-16 08:47:00,35.5,30.3,29.87,East,85,2.0,10.0,81,0.00,,OVC080,0.00,VWS V14.01,2013-02-16 13:47:00,
2013-02-16 08:52:00,35.6,30.5,29.88,NE,37,5.0,10.0,81,0.00,,OVC080,0.00,VWS V14.01,2013-02-16 13:52:00,
2013-02-16 08:57:00,35.4,30.3,29.87,NNE,16,1.0,11.0,81,0.00,,OVC080,0.00,VWS V14.01,2013-02-16 13:57:00,
2013-02-16 09:02:00,35.5,30.0,29.87,NNE,13,3.0,10.0,80,0.00,,,0.00,VWS V14.01,2013-02-16 14:02:00,
2013-02-16 09:07:00,35.3,29.5,29.88,NE,40,2.0,10.0,80,0.00,,,0.00,VWS V14.01,2013-02-16 14:07:00,
2013-02-16 09:12:00,35.3,29.5,29.88,North,11,6.0,10.0,79,0.00,,,0.00,VWS V14.01,2013-02-16 14:12:00,
2013-02-16 09:17:00,35.1,29.7,29.87,North,6,6.0,10.0,80,0.00,,,0.00,VWS V14.01,2013-02-16 14:17:00,
2013-02-16 09:22:00,35.2,29.4,29.88,NE,47,5.0,12.0,79,0.00,,,0.00,VWS V14.01,2013-02-16 14:22:00,
2013-02-16 09:27:00,35.2,29.0,29.87,North,11,8.0,12.0,78,0.00,,,0.00,VWS V14.01,2013-02-16 14:27:00,
2013-02-16 09:32:00,35.3,29.0,29.87,NNE,22,5.0,6.0,78,0.00,,,0.00,VWS V14.01,2013-02-16 14:32:00,
2013-02-16 09:37:00,35.2,28.7,29.87,NNE,22,7.0,13.0,77,0.00,,,0.00,VWS V14.01,2013-02-16 14:37:00,
2013-02-16 09:42:00,35.1,28.3,29.86,NNE,33,11.0,13.0,76,0.00,,,0.00,VWS V14.01,2013-02-16 14:42:00,
2013-02-16 09:47:00,35.2,28.3,29.86,NE,38,9.0,13.0,76,0.00,,,0.00,VWS V14.01,2013-02-16 14:47:00,
2013-02-16 09:52:00,35.1,28.3,29.86,NNE,27,7.0,13.0,76,0.00,,,0.00,VWS V14.01,2013-02-16 14:52:00,
2013-02-16 09:57:00,35.0,28.2,29.86,NNE,33,4.0,13.0,76,0.00,,,0.00,VWS V14.01,2013-02-16 14:57:00,
2013-02-16 10:02:00,35.1,28.3,29.86,East,83,3.0,10.0,76,0.00,,,0.00,VWS V14.01,2013-02-16 15:02:00,
2013-02-16 10:07:00,35.1,28.0,29.87,NNE,23,8.0,12.0,75,0.00,,,0.00,VWS V14.01,2013-02-16 15:07:00,
2013-02-16 10:12:00,35.2,28.4,29.86,NE,54,4.0,12.0,76,0.00,,,0.00,VWS V14.01,2013-02-16 15:12:00,
2013-02-16 10:17:00,35.6,28.5,29.86,NE,53,0.0,12.0,75,0.00,,,0.00,VWS V14.01,2013-02-16 15:17:00,
2013-02-16 10:22:00,35.8,28.7,29.87,NNE,26,7.0,12.0,75,0.00,,,0.00,VWS V14.01,2013-02-16 15:22:00,
2013-02-16 10:27:00,36.0,28.9,29.86,ENE,70,0.0,12.0,75,0.00,,,0.00,VWS V14.01,2013-02-16 15:27:00,
2013-02-16 10:32:00,36.2,28.6,29.86,NNE,12,4.0,11.0,74,0.00,,,0.00,VWS V14.01,2013-02-16 15:32:00,
2013-02-16 10:37:00,36.1,28.7,29.86,NNE,13,3.0,11.0,74,0.00,,,0.00,VWS V14.01,2013-02-16 15:37:00,
2013-02-16 10:42:00,36.4,28.9,29.86,North,6,1.0,12.0,74,0.00,,,0.00,VWS V14.01,2013-02-16 15:42:00,
2013-02-16 10:47:00,36.5,28.7,29.86,NE,46,10.0,12.0,73,0.00,,,0.00,VWS V14.01,2013-02-16 15:47:00,
2013-02-16 10:52:00,36.3,28.1,29.86,North,10,5.0,15.0,72,0.00,,,0.00,VWS V14.01,2013-02-16 15:52:00,
2013-02-16 10:57:00,36.3,28.1,29.85,North,4,3.0,15.0,72,0.00,,,0.00,VWS V14.01,2013-02-16 15:57:00,
2013-02-16 11:02:00,36.3,27.8,29.86,NNE,15,4.0,11.0,71,0.00,,OVC070,0.00,VWS V14.01,2013-02-16 16:02:00,
2013-02-16 11:07:00,36.3,27.8,29.85,NNE,13,7.0,12.0,71,0.00,,OVC070,0.00,VWS V14.01,2013-02-16 16:07:00,
2013-02-16 11:12:00,36.2,27.7,29.85,East,98,4.0,14.0,71,0.00,,OVC070,0.00,VWS V14.01,2013-02-16 16:12:00,
2013-02-16 11:17:00,36.4,27.6,29.85,NE,35,5.0,14.0,70,0.00,,OVC070,0.00,VWS V14.01,2013-02-16 16:17:00,
2013-02-16 11:22:00,36.4,27.6,29.85,ENE,58,2.0,14.0,70,0.00,,OVC070,0.00,VWS V14.01,2013-02-16 16:22:00,
2013-02-16 11:27:00,36.4,27.6,29.85,North,1,0.0,14.0,70,0.00,,OVC070,0.00,VWS V14.01,2013-02-16 16:27:00,
2013-02-16 11:32:00,36.3,27.5,29.85,NNE,19,3.0,10.0,69,0.00,,OVC070,0.00,VWS V14.01,2013-02-16 16:32:00,
2013-02-16 11:37:00,36.5,27.7,29.85,North,5,3.0,10.0,70,0.00,,OVC070,0.00,VWS V14.01,2013-02-16 16:37:00,
2013-02-16 11:42:00,36.3,27.1,29.85,NE,50,1.0,10.0,69,0.00,,OVC070,0.00,VWS V14.01,2013-02-16 16:42:00,
2013-02-16 11:47:00,36.6,27.4,29.85,NNE,13,3.0,10.0,69,0.00,,OVC070,0.00,VWS V14.01,2013-02-16 16:47:00,
2013-02-16 11:52:00,36.7,27.1,29.84,NE,39,3.0,10.0,68,0.00,,OVC070,0.00,VWS V14.01,2013-02-16 16:52:00,
2013-02-16 11:57:00,37.3,28.1,29.83,ESE,109,1.0,10.0,69,0.00,,OVC070,0.00,VWS V14.01,2013-02-16 16:57:00,
2013-02-16 12:02:00,37.7,27.8,29.83,NNE,25,1.0,9.0,67,0.00,,OVC055,0.00,VWS V14.01,2013-02-16 17:02:00,
2013-02-16 12:07:00,38.2,28.2,29.83,NE,38,2.0,9.0,67,0.00,,OVC055,0.00,VWS V14.01,2013-02-16 17:07:00,
2013-02-16 12:12:00,38.8,28.4,29.83,NE,45,0.0,9.0,66,0.00,,OVC055,0.00,VWS V14.01,2013-02-16 17:12:00,
2013-02-16 12:17:00,39.3,28.9,29.82,NNE,32,4.0,9.0,66,0.00,,OVC055,0.00,VWS V14.01,2013-02-16 17:17:00,
2013-02-16 12:22:00,39.4,28.2,29.83,NNE,22,9.0,10.0,64,0.00,,OVC055,0.00,VWS V14.01,2013-02-16 17:22:00,
2013-02-16 12:27:00,39.9,28.7,29.83,NNW,333,0.0,10.0,64,0.00,,OVC055,0.00,VWS V14.01,2013-02-16 17:27:00,
2013-02-16 12:32:00,40.4,29.2,29.83,NE,40,4.0,6.0,64,0.00,,OVC055,0.00,VWS V14.01,2013-02-16 17:32:00,
2013-02-16 12:37:00,40.3,28.7,29.82,ENE,69,6.0,7.0,63,0.00,,OVC055,0.00,VWS V14.01,2013-02-16 17:37:00,
2013-02-16 12:42:00,40.0,28.4,29.82,ENE,58,0.0,7.0,63,0.00,,OVC055,0.00,VWS V14.01,2013-02-16 17:42:00,
2013-02-16 12:47:00,40.2,28.2,29.82,NNE,27,0.0,8.0,62,0.00,,OVC055,0.00,VWS V14.01,2013-02-16 17:47:00,
2013-02-16 12:52:00,40.0,28.0,29.82,North,3,6.0,8.0,62,0.00,,OVC055,0.00,VWS V14.01,2013-02-16 17:52:00,
2013-02-16 12:57:00,39.9,27.2,29.82,North,11,3.0,11.0,60,0.00,,OVC055,0.00,VWS V14.01,2013-02-16 17:57:00,
2013-02-16 13:02:00,39.7,27.9,29.81,NNE,27,8.0,8.0,62,0.00,,OVC250,0.00,VWS V14.01,2013-02-16 18:02:00,
2013-02-16 13:07:00,40.5,28.5,29.82,NNE,31,0.0,9.0,62,0.00,,OVC250,0.00,VWS V14.01,2013-02-16 18:07:00,
2013-02-16 13:12:00,40.5,27.7,29.81,NNE,19,4.0,11.0,60,0.00,,OVC250,0.00,VWS V14.01,2013-02-16 18:12:00,
2013-02-16 13:17:00,40.6,28.6,29.81,NNE,16,5.0,11.0,62,0.00,,OVC250,0.00,VWS V14.01,2013-02-16 18:17:00,
2013-02-16 13:22:00,40.8,28.0,29.81,NNE,24,5.0,12.0,60,0.00,,OVC250,0.00,VWS V14.01,2013-02-16 18:22:00,
2013-02-16 13:27:00,40.7,27.5,29.81,NNE,14,7.0,12.0,59,0.00,,OVC250,0.00,VWS V14.01,2013-02-16 18:27:00,
2013-02-16 13:32:00,40.7,27.4,29.81,North,3,0.0,6.0,59,0.00,,OVC250,0.00,VWS V14.01,2013-02-16 18:32:00,
2013-02-16 13:37:00,40.6,27.4,29.81,NNE,20,11.0,12.0,59,0.00,,OVC250,0.00,VWS V14.01,2013-02-16 18:37:00,
2013-02-16 13:42:00,40.1,27.4,29.80,NNE,17,3.0,13.0,60,0.00,,OVC250,0.00,VWS V14.01,2013-02-16 18:42:00,
2013-02-16 13:47:00,40.5,27.7,29.80,NE,42,0.0,13.0,60,0.00,,OVC250,0.00,VWS V14.01,2013-02-16 18:47:00,
2013-02-16 13:52:00,40.5,27.7,29.80,ENE,58,5.0,13.0,60,0.00,,OVC250,0.00,VWS V14.01,2013-02-16 18:52:00,
2013-02-16 13:57:00,40.7,27.5,29.80,NNE,25,2.0,13.0,59,0.00,,OVC250,0.00,VWS V14.01,2013-02-16 18:57:00,
2013-02-16 14:02:00,40.6,27.4,29.80,North,4,4.0,7.0,59,0.00,,BKN250,0.00,VWS V14.01,2013-02-16 19:02:00,
2013-02-16 14:07:00,40.2,27.0,29.80,ENE,74,3.0,10.0,59,0.00,,BKN250,0.00,VWS V14.01,2013-02-16 19:07:00,
2013-02-16 14:12:00,40.1,27.4,29.79,NNE,21,0.0,10.0,60,0.00,,BKN250,0.00,VWS V14.01,2013-02-16 19:12:00,
2013-02-16 14:17:00,40.0,26.8,29.79,NNE,26,0.0,10.0,59,0.00,,BKN250,0.00,VWS V14.01,2013-02-16 19:17:00,
2013-02-16 14:22:00,39.7,26.7,29.78,ESE,105,4.0,10.0,59,0.00,,BKN250,0.00,VWS V14.01,2013-02-16 19:22:00,
2013-02-16 14:27:00,39.6,26.5,29.78,NNE,23,1.0,10.0,59,0.00,,BKN250,0.00,VWS V14.01,2013-02-16 19:27:00,
2013-02-16 14:32:00,39.3,26.3,29.78,NE,36,3.0,8.0,59,0.00,,BKN250,0.00,VWS V14.01,2013-02-16 19:32:00,
2013-02-16 14:37:00,39.6,26.5,29.78,NNE,13,6.0,9.0,59,0.00,,BKN250,0.00,VWS V14.01,2013-02-16 19:37:00,
2013-02-16 14:42:00,40.1,26.9,29.78,ENE,68,3.0,9.0,59,0.00,,BKN250,0.00,VWS V14.01,2013-02-16 19:42:00,
2013-02-16 14:47:00,40.4,26.4,29.77,NNE,24,0.0,11.0,57,0.00,,BKN250,0.00,VWS V14.01,2013-02-16 19:47:00,
2013-02-16 14:52:00,41.5,27.4,29.77,NNE,29,4.0,11.0,57,0.00,,BKN250,0.00,VWS V14.01,2013-02-16 19:52:00,
2013-02-16 14:57:00,41.6,26.6,29.77,North,7,3.0,11.0,55,0.00,,BKN250,0.00,VWS V14.01,2013-02-16 19:57:00,
2013-02-16 15:02:00,41.5,27.0,29.76,ENE,63,0.0,5.0,56,0.00,,BKN250,0.00,VWS V14.01,2013-02-16 20:02:00,
2013-02-16 15:07:00,41.1,26.2,29.77,NNE,25,6.0,8.0,56,0.00,,BKN250,0.00,VWS V14.01,2013-02-16 20:07:00,
2013-02-16 15:12:00,41.0,26.5,29.76,NE,51,2.0,8.0,56,0.00,,BKN250,0.00,VWS V14.01,2013-02-16 20:12:00,
2013-02-16 15:17:00,41.1,26.5,29.77,NNE,14,3.0,9.0,56,0.00,,BKN250,0.00,VWS V14.01,2013-02-16 20:17:00,
2013-02-16 15:22:00,40.5,26.0,29.77,NNE,29,8.0,9.0,56,0.00,,BKN250,0.00,VWS V14.01,2013-02-16 20:22:00,
2013-02-16 15:27:00,40.0,25.6,29.77,NNE,21,3.0,10.0,56,0.00,,BKN250,0.00,VWS V14.01,2013-02-16 20:27:00,
2013-02-16 15:32:00,39.8,26.2,29.78,NNE,33,1.0,5.0,58,0.00,,BKN250,0.00,VWS V14.01,2013-02-16 20:32:00,
2013-02-16 15:37:00,39.6,26.1,29.78,NNE,22,4.0,9.0,58,0.00,,BKN250,0.00,VWS V14.01,2013-02-16 20:37:00,
2013-02-16 15:42:00,39.6,26.5,29.78,NNE,27,0.0,9.0,59,0.00,,BKN250,0.00,VWS V14.01,2013-02-16 20:42:00,
2013-02-16 15:47:00,39.5,26.3,29.78,NE,34,0.0,9.0,59,0.00,,BKN250,0.00,VWS V14.01,2013-02-16 20:47:00,
2013-02-16 15:52:00,39.2,26.1,29.77,NNE,20,0.0,9.0,59,0.00,,BKN250,0.00,VWS V14.01,2013-02-16 20:52:00,
2013-02-16 15:57:00,38.9,25.8,29.78,North,4,3.0,9.0,59,0.00,,BKN250,0.00,VWS V14.01,2013-02-16 20:57:00,
2013-02-16 16:02:00,38.6,25.5,29.78,NNW,333,3.0,6.0,59,0.00,,OVC250,0.00,VWS V14.01,2013-02-16 21:02:00,
2013-02-16 16:07:00,38.3,25.2,29.77,NE,35,2.0,9.0,59,0.00,,OVC250,0.00,VWS V14.01,2013-02-16 21:07:00,
2013-02-16 16:12:00,38.1,25.5,29.77,NNE,22,1.0,9.0,60,0.00,,OVC250,0.00,VWS V14.01,2013-02-16 21:12:00,
2013-02-16 16:17:00,37.8,25.2,29.77,North,11,0.0,9.0,60,0.00,,OVC250,0.00,VWS V14.01,2013-02-16 21:17:00,
2013-02-16 16:22:00,37.6,25.4,29.77,North,352,6.0,9.0,61,0.00,,OVC250,0.00,VWS V14.01,2013-02-16 21:22:00,
2013-02-16 16:27:00,37.2,25.0,29.76,NNE,14,4.0,9.0,61,0.00,,OVC250,0.00,VWS V14.01,2013-02-16 21:27:00,
2013-02-16 16:32:00,37.2,25.0,29.76,NNE,18,8.0,8.0,61,0.00,,OVC250,0.00,VWS V14.01,2013-02-16 21:32:00,
2013-02-16 16:37:00,37.1,24.9,29.76,North,10,8.0,9.0,61,0.00,,OVC250,0.00,VWS V14.01,2013-02-16 21:37:00,
2013-02-16 16:42:00,37.1,24.9,29.76,NNE,23,9.0,12.0,61,0.00,,OVC250,0.00,VWS V14.01,2013-02-16 21:42:00,
2013-02-16 16:47:00,36.9,24.7,29.77,NNE,15,5.0,12.0,61,0.00,,OVC250,0.00,VWS V14.01,2013-02-16 21:47:00,
2013-02-16 16:52:00,36.8,24.6,29.77,North,354,5.0,12.0,61,0.00,,OVC250,0.00,VWS V14.01,2013-02-16 21:52:00,
2013-02-16 16:57:00,36.7,24.5,29.76,NNE,22,2.0,12.0,61,0.00,,OVC250,0.00,VWS V14.01,2013-02-16 21:57:00,
2013-02-16 17:02:00,36.7,24.5,29.76,NNE,33,3.0,7.0,61,0.00,,OVC130,0.00,VWS V14.01,2013-02-16 22:02:00,
2013-02-16 17:07:00,36.9,24.7,29.76,NNE,13,10.0,12.0,61,0.00,,OVC130,0.00,VWS V14.01,2013-02-16 22:07:00,
2013-02-16 17:12:00,37.2,25.8,29.76,North,9,9.0,12.0,63,0.00,,OVC130,0.00,VWS V14.01,2013-02-16 22:12:00,
2013-02-16 17:17:00,37.4,25.2,29.76,NNE,15,5.0,12.0,61,0.00,,OVC130,0.00,VWS V14.01,2013-02-16 22:17:00,
2013-02-16 17:22:00,37.3,24.3,29.76,North,357,2.0,12.0,59,0.00,,OVC130,0.00,VWS V14.01,2013-02-16 22:22:00,
2013-02-16 17:27:00,36.8,24.2,29.76,NNE,25,8.0,13.0,60,0.00,,OVC130,0.00,VWS V14.01,2013-02-16 22:27:00,
2013-02-16 17:32:00,36.6,24.0,29.75,North,2,5.0,8.0,60,0.00,,OVC130,0.00,VWS V14.01,2013-02-16 22:32:00,
2013-02-16 17:37:00,36.5,24.3,29.75,NNE,28,3.0,9.0,61,0.00,,OVC130,0.00,VWS V14.01,2013-02-16 22:37:00,
2013-02-16 17:42:00,36.3,24.1,29.75,NNE,16,1.0,11.0,61,0.00,,OVC130,0.00,VWS V14.01,2013-02-16 22:42:00,
2013-02-16 17:47:00,36.2,23.7,29.75,North,10,4.0,13.0,60,0.00,,OVC130,0.00,VWS V14.01,2013-02-16 22:47:00,
2013-02-16 17:52:00,36.2,23.7,29.75,NNE,32,3.0,13.0,60,0.00,,OVC130,0.00,VWS V14.01,2013-02-16 22:52:00,
2013-02-16 17:57:00,36.2,24.1,29.76,NNE,13,0.0,13.0,61,0.00,,OVC130,0.00,VWS V14.01,2013-02-16 22:57:00,
2013-02-16 18:02:00,36.2,24.1,29.75,NE,55,3.0,9.0,61,0.00,,OVC080,0.00,VWS V14.01,2013-02-16 23:02:00,
2013-02-16 18:07:00,36.2,24.1,29.75,North,6,9.0,11.0,61,0.00,,OVC080,0.00,VWS V14.01,2013-02-16 23:07:00,
2013-02-16 18:12:00,36.1,23.7,29.75,NNE,29,0.0,13.0,60,0.00,,OVC080,0.00,VWS V14.01,2013-02-16 23:12:00,
2013-02-16 18:17:00,36.1,24.0,29.75,NNE,23,9.0,13.0,61,0.00,,OVC080,0.00,VWS V14.01,2013-02-16 23:17:00,
2013-02-16 18:22:00,36.1,23.9,29.74,NE,35,1.0,13.0,61,0.00,,OVC080,0.00,VWS V14.01,2013-02-16 23:22:00,
2013-02-16 18:27:00,36.1,24.1,29.74,NNE,25,4.0,13.0,61,0.00,,OVC080,0.00,VWS V14.01,2013-02-16 23:27:00,
2013-02-16 18:32:00,36.0,23.5,29.74,NNE,26,5.0,10.0,60,0.00,,OVC080,0.00,VWS V14.01,2013-02-16 23:32:00,
2013-02-16 18:37:00,35.8,23.8,29.74,NE,37,4.0,10.0,61,0.00,,OVC080,0.00,VWS V14.01,2013-02-16 23:37:00,
2013-02-16 18:42:00,35.7,23.2,29.74,NNE,13,8.0,12.0,60,0.00,,OVC080,0.00,VWS V14.01,2013-02-16 23:42:00,
2013-02-16 18:47:00,35.5,22.2,29.74,NNE,22,7.0,14.0,58,0.00,,OVC080,0.00,VWS V14.01,2013-02-16 23:47:00,
2013-02-16 18:52:00,35.4,22.1,29.74,NNE,29,8.0,14.0,58,0.00,,OVC080,0.00,VWS V14.01,2013-02-16 23:52:00,
2013-02-16 18:57:00,35.5,21.8,29.75,NNE,17,6.0,16.0,57,0.00,,OVC080,0.00,VWS V14.01,2013-02-16 23:57:00,
2013-02-16 19:02:00,35.3,21.6,29.75,NE,37,4.0,12.0,57,0.00,,OVC065,0.00,VWS V14.01,2013-02-17 00:02:00,
2013-02-16 19:07:00,35.2,21.5,29.74,NNE,25,6.0,15.0,57,0.00,,OVC065,0.00,VWS V14.01,2013-02-17 00:07:00,
2013-02-16 19:12:00,35.3,21.6,29.75,NNE,19,3.0,15.0,57,0.00,,OVC065,0.00,VWS V14.01,2013-02-17 00:12:00,
2013-02-16 19:17:00,35.3,22.0,29.75,NNE,23,5.0,15.0,58,0.00,,OVC065,0.00,VWS V14.01,2013-02-17 00:17:00,
2013-02-16 19:22:00,35.2,21.9,29.75,NNE,29,2.0,15.0,58,0.00,,OVC065,0.00,VWS V14.01,2013-02-17 00:22:00,
2013-02-16 19:27:00,35.2,22.3,29.75,NNE,26,6.0,15.0,59,0.00,,OVC065,0.00,VWS V14.01,2013-02-17 00:27:00,
2013-02-16 19:32:00,35.0,22.2,29.75,North,5,2.0,10.0,59,0.00,,OVC065,0.00,VWS V14.01,2013-02-17 00:32:00,
2013-02-16 19:37:00,34.8,21.5,29.74,North,2,2.0,13.0,58,0.00,,OVC065,0.00,VWS V14.01,2013-02-17 00:37:00,
2013-02-16 19:42:00,34.8,22.0,29.74,NNE,31,1.0,13.0,59,0.00,,OVC065,0.00,VWS V14.01,2013-02-17 00:42:00,
2013-02-16 19:47:00,34.9,22.1,29.75,North,7,0.0,14.0,59,0.00,,OVC065,0.00,VWS V14.01,2013-02-17 00:47:00,
2013-02-16 19:52:00,34.7,21.8,29.75,NE,34,2.0,14.0,59,0.00,,OVC065,0.00,VWS V14.01,2013-02-17 00:52:00,
2013-02-16 19:57:00,34.4,22.4,29.75,North,9,6.0,14.0,61,0.00,,OVC065,0.00,VWS V14.01,2013-02-17 00:57:00,
2013-02-16 20:02:00,34.2,22.5,29.75,SE,138,2.0,11.0,62,0.00,,OVC046,0.00,VWS V14.01,2013-02-17 01:02:00,
2013-02-16 20:07:00,34.0,23.1,29.74,NNE,12,0.0,12.0,64,0.00,,OVC046,0.00,VWS V14.01,2013-02-17 01:07:00,
2013-02-16 20:12:00,33.8,23.3,29.74,NNE,25,2.0,12.0,65,0.00,,OVC046,0.00,VWS V14.01,2013-02-17 01:12:00,
2013-02-16 20:17:00,33.4,23.3,29.74,NNE,32,5.0,12.0,66,0.00,,OVC046,0.00,VWS V14.01,2013-02-17 01:17:00,
2013-02-16 20:22:00,33.3,23.5,29.73,ENE,71,6.0,12.0,67,0.00,,OVC046,0.00,VWS V14.01,2013-02-17 01:22:00,
2013-02-16 20:27:00,33.1,23.7,29.74,NE,49,8.0,12.0,68,0.00,,OVC046,0.00,VWS V14.01,2013-02-17 01:27:00,
2013-02-16 20:32:00,33.2,24.1,29.74,NNE,31,4.0,14.0,69,0.00,,OVC046,0.00,VWS V14.01,2013-02-17 01:32:00,
2013-02-16 20:37:00,33.1,24.4,29.74,East,80,8.0,14.0,70,0.00,,OVC046,0.00,VWS V14.01,2013-02-17 01:37:00,
2013-02-16 20:42:00,32.9,24.5,29.74,ENE,62,2.0,14.0,71,0.00,,OVC046,0.00,VWS V14.01,2013-02-17 01:42:00,
2013-02-16 20:47:00,32.7,25.0,29.75,ENE,62,1.0,14.0,73,0.00,,OVC046,0.00,VWS V14.01,2013-02-17 01:47:00,
2013-02-16 20:52:00,32.5,24.7,29.75,NE,46,1.0,14.0,73,0.00,,OVC046,0.00,VWS V14.01,2013-02-17 01:52:00,
2013-02-16 20:57:00,32.3,24.3,29.74,NE,52,1.0,14.0,72,0.00,,OVC046,0.00,VWS V14.01,2013-02-17 01:57:00,
2013-02-16 21:02:00,32.3,23.3,29.73,ENE,71,4.0,10.0,69,0.00,,OVC046,0.00,VWS V14.01,2013-02-17 02:02:00,
2013-02-16 21:07:00,32.4,23.1,29.73,NE,53,0.0,10.0,68,0.00,,OVC046,0.00,VWS V14.01,2013-02-17 02:07:00,
2013-02-16 21:12:00,32.5,22.1,29.73,NNE,24,12.0,12.0,65,0.00,,OVC046,0.00,VWS V14.01,2013-02-17 02:12:00,
2013-02-16 21:17:00,32.4,20.1,29.74,North,7,8.0,15.0,60,0.00,,OVC046,0.00,VWS V14.01,2013-02-17 02:17:00,
2013-02-16 21:22:00,32.4,19.3,29.72,NNE,14,1.0,15.0,58,0.00,,OVC046,0.00,VWS V14.01,2013-02-17 02:22:00,
2013-02-16 21:27:00,32.3,18.4,29.73,North,6,11.0,15.0,56,0.00,,OVC046,0.00,VWS V14.01,2013-02-17 02:27:00,
2013-02-16 21:32:00,32.4,18.5,29.73,NNE,19,1.0,8.0,56,0.00,,OVC046,0.00,VWS V14.01,2013-02-17 02:32:00,
2013-02-16 21:37:00,32.5,18.1,29.72,NE,35,3.0,10.0,55,0.00,,OVC046,0.00,VWS V14.01,2013-02-17 02:37:00,
2013-02-16 21:42:00,32.5,18.2,29.71,ENE,70,3.0,11.0,55,0.00,,OVC046,0.00,VWS V14.01,2013-02-17 02:42:00,
2013-02-16 21:47:00,32.4,18.0,29.71,NE,45,4.0,16.0,55,0.00,,OVC046,0.00,VWS V14.01,2013-02-17 02:47:00,
2013-02-16 21:52:00,32.5,18.1,29.71,NE,39,4.0,16.0,55,0.00,,OVC046,0.00,VWS V14.01,2013-02-17 02:52:00,
2013-02-16 21:57:00,32.4,18.0,29.70,NNE,15,6.0,16.0,55,0.00,,OVC046,0.00,VWS V14.01,2013-02-17 02:57:00,
2013-02-16 22:02:00,32.4,18.0,29.72,NNE,33,3.0,16.0,55,0.00,,OVC060,0.00,VWS V14.01,2013-02-17 03:02:00,
2013-02-16 22:07:00,32.2,17.9,29.71,NE,53,0.0,16.0,55,0.00,,OVC060,0.00,VWS V14.01,2013-02-17 03:07:00,
2013-02-16 22:12:00,32.1,17.8,29.70,NNE,20,5.0,16.0,54,0.00,,OVC060,0.00,VWS V14.01,2013-02-17 03:12:00,
2013-02-16 22:17:00,32.1,17.3,29.70,NNE,27,7.0,16.0,54,0.00,,OVC060,0.00,VWS V14.01,2013-02-17 03:17:00,
2013-02-16 22:22:00,32.0,17.7,29.69,NE,45,5.0,16.0,55,0.00,,OVC060,0.00,VWS V14.01,2013-02-17 03:22:00,
2013-02-16 22:27:00,32.0,17.2,29.69,NNE,15,7.0,16.0,54,0.00,,OVC060,0.00,VWS V14.01,2013-02-17 03:27:00,
2013-02-16 22:32:00,32.0,17.7,29.69,NE,52,2.0,8.0,55,0.00,,OVC060,0.00,VWS V14.01,2013-02-17 03:32:00,
2013-02-16 22:37:00,31.9,17.2,29.69,North,10,7.0,12.0,54,0.00,,OVC060,0.00,VWS V14.01,2013-02-17 03:37:00,
2013-02-16 22:42:00,31.8,17.5,29.68,North,2,1.0,18.0,55,0.00,,OVC060,0.00,VWS V14.01,2013-02-17 03:42:00,
2013-02-16 22:47:00,31.7,17.4,29.67,NNE,27,8.0,18.0,55,0.00,,OVC060,0.00,VWS V14.01,2013-02-17 03:47:00,
2013-02-16 22:52:00,31.7,17.0,29.67,NNE,13,8.0,18.0,54,0.00,,OVC060,0.00,VWS V14.01,2013-02-17 03:52:00,
2013-02-16 22:57:00,31.7,17.0,29.66,NNE,23,2.0,18.0,54,0.00,,OVC060,0.00,VWS V14.01,2013-02-17 03:57:00,
2013-02-16 23:02:00,31.8,17.5,29.66,NNE,31,5.0,11.0,55,0.00,,OVC070,0.00,VWS V14.01,2013-02-17 04:02:00,
2013-02-16 23:07:00,31.8,17.1,29.66,NNE,24,7.0,15.0,54,0.00,,OVC070,0.00,VWS V14.01,2013-02-17 04:07:00,
2013-02-16 23:12:00,31.6,16.9,29.65,North,4,4.0,15.0,54,0.00,,OVC070,0.00,VWS V14.01,2013-02-17 04:12:00,
2013-02-16 23:17:00,31.6,16.9,29.66,NNE,19,2.0,15.0,54,0.00,,OVC070,0.00,VWS V14.01,2013-02-17 04:17:00,
2013-02-16 23:22:00,31.5,16.8,29.66,NE,47,2.0,21.0,54,0.00,,OVC070,0.00,VWS V14.01,2013-02-17 04:22:00,
2013-02-16 23:27:00,31.4,17.1,29.66,NE,48,5.0,21.0,55,0.00,,OVC070,0.00,VWS V14.01,2013-02-17 04:27:00,
2013-02-16 23:32:00,31.1,16.8,29.64,North,0,0.0,14.0,55,0.00,,OVC070,0.00,VWS V14.01,2013-02-17 04:32:00,
2013-02-16 23:37:00,31.2,17.3,29.64,NNE,19,5.0,14.0,56,0.00,,OVC070,0.00,VWS V14.01,2013-02-17 04:37:00,
2013-02-16 23:42:00,30.9,17.1,29.64,North,9,6.0,16.0,56,0.00,,OVC070,0.00,VWS V14.01,2013-02-17 04:42:00,
2013-02-16 23:47:00,30.8,17.8,29.64,North,353,3.0,17.0,58,0.00,,OVC070,0.00,VWS V14.01,2013-02-17 04:47:00,
2013-02-16 23:52:00,30.8,17.4,29.64,NNE,14,5.0,17.0,57,0.00,,OVC070,0.00,VWS V14.01,2013-02-17 04:52:00,
2013-02-16 23:57:00,30.7,17.3,29.64,North,6,4.0,17.0,57,0.00,,OVC070,0.00,VWS V14.01,2013-02-17 04:57:00,